WY7EM Weather Reports


time (UTC)temp
C
wind
direction
speed
KPH
gust
KPH
rain 1hr
cm
rain 24hr
cm
rain mn
cm
humidity
%
barometer
mb
20260507052624 16 33 1.6 1.6 0.00 0.00 0.00 29 1018.6
20260507052120 16 28 0.0 0.0 0.00 0.00 0.00 29 1018.6
20260507051618 16 17 0.0 0.0 0.00 0.00 0.00 29 1018.5
20260507051115 16 13 0.0 0.0 0.00 0.00 0.00 29 1018.2
20260507050612 16 13 0.0 0.0 0.00 0.00 0.00 29 1018.5
20260507050108 16 25 1.6 1.6 0.00 0.00 0.00 28 1018.3
20260507045605 16 21 0.0 0.0 0.00 0.00 0.00 29 1018.3
20260507045102 16 38 0.0 1.6 0.00 0.00 0.00 29 1018.3
20260507044559 16 11 0.0 0.0 0.00 0.00 0.00 29 1018.0
20260507044056 16 12 0.0 0.0 0.00 0.00 0.00 29 1018.0
20260507043551 17 14 0.0 0.0 0.00 0.00 0.00 28 1017.9
20260507043049 17 13 0.0 0.0 0.00 0.00 0.00 28 1017.9
20260507042544 17 12 0.0 1.6 0.00 0.00 0.00 28 1017.7
20260507042040 17 12 1.6 1.6 0.00 0.00 0.00 28 1017.5
20260507041537 17 18 0.0 0.0 0.00 0.00 0.00 28 1017.5
20260507041034 17 20 0.0 1.6 0.00 0.00 0.00 27 1017.4
20260507040531 17 10 0.0 1.6 0.00 0.00 0.00 28 1017.3
20260507040026 17 17 0.0 0.0 0.00 0.00 0.00 27 1017.3
20260507035523 17 32 0.0 1.6 0.00 0.00 0.00 27 1017.1
20260507035020 17 10 0.0 0.0 0.00 0.00 0.00 27 1016.9
20260507034517 18 6 1.6 1.6 0.00 0.00 0.00 27 1016.9
20260507034014 18 18 0.0 1.6 0.00 0.00 0.00 27 1016.8
20260507033512 18 26 0.0 1.6 0.00 0.00 0.00 27 1016.6
20260507033009 18 9 0.0 1.6 0.00 0.00 0.00 27 1016.5
20260507032506 18 36 1.6 1.6 0.00 0.00 0.00 27 1016.3
20260507032002 18 24 1.6 1.6 0.00 0.00 0.00 27 1016.4
20260507031458 18 17 0.0 1.6 0.00 0.00 0.00 26 1016.3
20260507030955 18 29 1.6 3.2 0.00 0.00 0.00 26 1016.2
20260507030452 19 17 0.0 1.6 0.00 0.00 0.00 26 1016.2
20260507025950 19 19 1.6 1.6 0.00 0.00 0.00 26 1016.0
20260507025447 19 29 3.2 3.2 0.00 0.00 0.00 26 1016.1
20260507024944 19 8 0.0 1.6 0.00 0.00 0.00 26 1015.8
20260507024442 19 17 1.6 1.6 0.00 0.00 0.00 26 1015.6
20260507023937 20 14 0.0 1.6 0.00 0.00 0.00 26 1015.6
20260507023435 20 31 1.6 3.2 0.00 0.00 0.00 25 1015.6
20260507022931 20 14 0.0 0.0 0.00 0.00 0.00 25 1015.4
20260507022429 20 5 1.6 1.6 0.00 0.00 0.00 25 1015.5
20260507021924 20 56 3.2 6.4 0.00 0.00 0.00 25 1015.6
20260507021419 20 9 1.6 3.2 0.00 0.00 0.00 25 1015.3
20260507020918 21 336 1.6 3.2 0.00 0.00 0.00 25 1015.3
20260507020414 21 5 1.6 3.2 0.00 0.00 0.00 24 1015.2
20260507015911 21 8 3.2 4.8 0.00 0.00 0.00 24 1015.2
20260507015409 21 44 1.6 3.2 0.00 0.00 0.00 24 1014.9
20260507014906 22 358 3.2 3.2 0.00 0.00 0.00 24 1014.8
20260507014402 22 9 3.2 3.2 0.00 0.00 0.00 24 1014.9
20260507013859 22 28 1.6 3.2 0.00 0.00 0.00 23 1014.8
20260507013356 22 16 1.6 1.6 0.00 0.00 0.00 23 1014.7
20260507012853 22 26 3.2 4.8 0.00 0.00 0.00 23 1014.8
20260507012350 22 355 3.2 3.2 0.00 0.00 0.00 23 1014.8
20260507011847 23 6 3.2 4.8 0.00 0.00 0.00 23 1014.6
20260507011344 23 24 3.2 4.8 0.00 0.00 0.00 24 1014.6
20260507010843 22 35 3.2 3.2 0.00 0.00 0.00 24 1014.6
20260507010339 23 35 3.2 6.4 0.00 0.00 0.00 24 1014.4
20260507005837 23 8 1.6 3.2 0.00 0.00 0.00 23 1014.3
20260507005333 23 354 3.2 3.2 0.00 0.00 0.00 24 1014.4
20260507004830 23 36 3.2 3.2 0.00 0.00 0.00 23 1014.4
20260507004327 23 3 1.6 1.6 0.00 0.00 0.00 23 1014.3
20260507003824 23 5 1.6 3.2 0.00 0.00 0.00 24 1014.1
20260507003320 23 28 6.4 14.5 0.00 0.00 0.00 23 1014.1
20260507002815 23 357 1.6 3.2 0.00 0.00 0.00 23 1014.0
20260507002311 23 345 1.6 3.2 0.00 0.00 0.00 22 1014.0
20260507001809 24 352 11.3 14.5 0.00 0.00 0.00 23 1014.0
20260507001306 24 326 4.8 6.4 0.00 0.00 0.00 22 1014.1
20260507000802 24 98 3.2 9.7 0.00 0.00 0.00 24 1013.8
20260507000259 24 5 1.6 1.6 0.00 0.00 0.00 21 1013.8
20260506235754 24 349 3.2 4.8 0.00 0.00 0.00 23 1013.9
20260506235250 24 350 6.4 9.7 0.00 0.00 0.00 23 1013.9
20260506234748 24 340 6.4 9.7 0.00 0.00 0.00 22 1013.8
20260506234245 25 3 6.4 9.7 0.00 0.00 0.00 23 1013.9
20260506233743 24 34 1.6 3.2 0.00 0.00 0.00 22 1013.7
20260506233239 24 14 3.2 4.8 0.00 0.00 0.00 23 1013.5
20260506232736 24 359 1.6 3.2 0.00 0.00 0.00 23 1013.8
20260506232235 25 358 4.8 6.4 0.00 0.00 0.00 23 1013.8
20260506231733 25 8 3.2 4.8 0.00 0.00 0.00 22 1013.9
20260506231231 25 49 3.2 3.2 0.00 0.00 0.00 21 1013.7
20260506230728 25 3 8.0 11.3 0.00 0.00 0.00 22 1013.7
20260506230225 25 18 6.4 12.9 0.00 0.00 0.00 22 1013.7
20260506225721 25 17 8.0 12.9 0.00 0.00 0.00 22 1013.7
20260506225218 25 21 1.6 3.2 0.00 0.00 0.00 21 1013.6
20260506224715 25 14 4.8 4.8 0.00 0.00 0.00 21 1013.6
20260506224212 25 12 3.2 3.2 0.00 0.00 0.00 21 1013.6
20260506223708 25 4 3.2 3.2 0.00 0.00 0.00 21 1013.3
20260506223204 25 25 4.8 6.4 0.00 0.00 0.00 21 1013.5
20260506222701 24 352 4.8 9.7 0.00 0.00 0.00 21 1013.8
20260506222156 25 3 9.7 12.9 0.00 0.00 0.00 21 1013.7
20260506221655 25 18 3.2 3.2 0.00 0.00 0.00 21 1013.5
20260506221153 25 344 3.2 4.8 0.00 0.00 0.00 21 1013.5
20260506220649 23 358 3.2 4.8 0.00 0.00 0.00 22 1013.5
20260506220144 23 353 8.0 11.3 0.00 0.00 0.00 21 1013.7
20260506215641 23 335 4.8 6.4 0.00 0.00 0.00 22 1013.3
20260506215136 23 343 9.7 11.3 0.00 0.00 0.00 22 1013.7
20260506214633 23 20 6.4 6.4 0.00 0.00 0.00 21 1013.6
20260506214131 23 33 0.0 1.6 0.00 0.00 0.00 21 1013.6
20260506213629 23 335 6.4 9.7 0.00 0.00 0.00 22 1013.7
20260506213126 23 17 0.0 1.6 0.00 0.00 0.00 22 1013.8
20260506212623 22 347 8.0 9.7 0.00 0.00 0.00 23 1013.6
20260506212118 23 359 8.0 11.3 0.00 0.00 0.00 23 1013.6
20260506211614 23 19 6.4 9.7 0.00 0.00 0.00 22 1013.5
20260506211111 22 359 14.5 17.7 0.00 0.00 0.00 23 1013.6
20260506210608 23 344 6.4 9.7 0.00 0.00 0.00 22 1013.5
20260506210104 23 68 4.8 4.8 0.00 0.00 0.00 21 1013.5
20260506205601 23 0 12.9 16.1 0.00 0.00 0.00 22 1013.7
20260506205056 23 38 6.4 9.7 0.00 0.00 0.00 21 1013.6
20260506204555 22 302 9.7 11.3 0.00 0.00 0.00 23 1013.5
20260506204051 23 0 4.8 4.8 0.00 0.00 0.00 23 1013.5
20260506203550 22 356 4.8 4.8 0.00 0.00 0.00 24 1013.3
20260506203046 22 342 8.0 9.7 0.00 0.00 0.00 23 1013.2
20260506202543 22 15 9.7 12.9 0.00 0.00 0.00 23 1013.3
20260506202039 22 263 12.9 24.1 0.00 0.00 0.00 23 1013.3
20260506201537 22 300 16.1 22.5 0.00 0.00 0.00 23 1013.1
20260506201034 23 187 9.7 16.1 0.00 0.00 0.00 23 1013.0
20260506200530 22 302 8.0 11.3 0.00 0.00 0.00 24 1013.2
20260506200027 22 299 9.7 14.5 0.00 0.00 0.00 23 1013.2
20260506195524 22 251 19.3 24.1 0.00 0.00 0.00 24 1013.2
20260506195020 22 294 8.0 9.7 0.00 0.00 0.00 24 1013.2
20260506194518 22 304 14.5 17.7 0.00 0.00 0.00 24 1013.1
20260506194014 22 295 4.8 4.8 0.00 0.00 0.00 25 1013.3
20260506193511 21 302 11.3 14.5 0.00 0.00 0.00 24 1013.6
20260506193008 22 286 11.3 12.9 0.00 0.00 0.00 24 1013.6
20260506192505 21 313 12.9 17.7 0.00 0.00 0.00 24 1013.7
20260506192001 22 326 11.3 16.1 0.00 0.00 0.00 25 1013.5
20260506191458 21 309 11.3 12.9 0.00 0.00 0.00 25 1013.8
20260506190954 21 267 9.7 16.1 0.00 0.00 0.00 25 1013.6
20260506190451 21 238 8.0 9.7 0.00 0.00 0.00 25 1013.8
20260506185948 22 272 6.4 9.7 0.00 0.00 0.00 25 1013.9
20260506185445 22 256 3.2 4.8 0.00 0.00 0.00 25 1013.8
20260506184942 22 294 16.1 20.9 0.00 0.00 0.00 25 1013.9
20260506184439 21 268 9.7 11.3 0.00 0.00 0.00 26 1013.9
20260506183936 22 238 6.4 6.4 0.00 0.00 0.00 25 1013.9
20260506183431 21 329 14.5 24.1 0.00 0.00 0.00 26 1014.1
20260506182929 22 236 17.7 24.1 0.00 0.00 0.00 25 1014.1
20260506182426 21 183 8.0 9.7 0.00 0.00 0.00 27 1014.1
20260506181923 21 260 9.7 12.9 0.00 0.00 0.00 27 1014.3
20260506181421 21 261 12.9 14.5 0.00 0.00 0.00 26 1014.5
20260506180918 21 337 14.5 17.7 0.00 0.00 0.00 26 1014.4
20260506180414 20 323 11.3 14.5 0.00 0.00 0.00 27 1014.5
20260506175911 21 317 6.4 9.7 0.00 0.00 0.00 27 1014.5
20260506175408 20 303 11.3 14.5 0.00 0.00 0.00 26 1014.8
20260506174905 20 254 9.7 16.1 0.00 0.00 0.00 27 1014.6
20260506174402 21 307 8.0 9.7 0.00 0.00 0.00 27 1014.4
20260506173859 20 296 14.5 22.5 0.00 0.00 0.00 27 1014.7
20260506173356 20 16 6.4 11.3 0.00 0.00 0.00 28 1014.6
20260506172853 20 315 14.5 17.7 0.00 0.00 0.00 28 1014.6
20260506172350 20 321 9.7 11.3 0.00 0.00 0.00 28 1014.7
20260506171847 19 283 6.4 9.7 0.00 0.00 0.00 29 1014.5
20260506171344 19 326 9.7 16.1 0.00 0.00 0.00 29 1014.7
20260506170842 20 330 8.0 11.3 0.00 0.00 0.00 29 1014.6
20260506170338 19 6 11.3 16.1 0.00 0.00 0.00 29 1014.6
20260506165837 19 161 6.4 9.7 0.00 0.00 0.00 29 1014.6
20260506165335 18 0 8.0 11.3 0.00 0.00 0.00 30 1014.5
20260506164831 18 299 6.4 11.3 0.00 0.00 0.00 29 1014.6
20260506164327 19 294 17.7 24.1 0.00 0.00 0.00 29 1014.5
20260506163825 19 327 8.0 9.7 0.00 0.00 0.00 29 1014.4
20260506163319 18 345 6.4 14.5 0.00 0.00 0.00 30 1014.5
20260506162815 18 331 6.4 11.3 0.00 0.00 0.00 30 1014.1
20260506162313 18 259 14.5 17.7 0.00 0.00 0.00 30 1014.5
20260506161810 18 251 12.9 17.7 0.00 0.00 0.00 30 1014.5
20260506161308 18 284 9.7 12.9 0.00 0.00 0.00 31 1014.5
20260506160805 18 16 3.2 4.8 0.00 0.00 0.00 31 1014.6
20260506160302 17 239 6.4 9.7 0.00 0.00 0.00 31 1014.5
20260506155801 17 179 9.7 11.3 0.00 0.00 0.00 31 1014.5
20260506155257 17 283 12.9 14.5 0.00 0.00 0.00 32 1014.7
20260506153410 17 248 8.0 9.7 0.00 0.00 0.00 32 1014.6
20260506152907 17 287 11.3 20.9 0.00 0.00 0.00 32 1014.5
20260506152404 17 270 11.3 12.9 0.00 0.00 0.00 32 1014.3
20260506151902 16 252 9.7 14.5 0.00 0.00 0.00 32 1014.5
20260506151359 16 298 11.3 14.5 0.00 0.00 0.00 32 1014.4
20260506150856 16 229 9.7 12.9 0.00 0.00 0.00 33 1014.4
20260506150352 16 243 9.7 11.3 0.00 0.00 0.00 32 1014.3
20260506145849 16 246 16.1 17.7 0.00 0.00 0.00 32 1014.4
20260506145345 16 206 16.1 17.7 0.00 0.00 0.00 32 1014.4
20260506144843 16 326 6.4 6.4 0.00 0.00 0.00 32 1014.6
20260506144339 16 320 4.8 9.7 0.00 0.00 0.00 32 1014.3
20260506143838 16 296 8.0 9.7 0.00 0.00 0.00 32 1014.5
20260506143335 15 326 6.4 9.7 0.00 0.00 0.00 33 1014.3
20260506142833 15 353 3.2 3.2 0.00 0.00 0.00 33 1014.6
20260506142331 15 1 4.8 4.8 0.00 0.00 0.00 34 1014.5
20260506141829 15 353 4.8 4.8 0.00 0.00 0.00 34 1014.6
20260506141327 15 6 3.2 3.2 0.00 0.00 0.00 34 1014.6
20260506140824 15 252 9.7 12.9 0.00 0.00 0.00 34 1014.6
20260506140321 14 295 6.4 6.4 0.00 0.00 0.00 34 1014.6
20260506135818 14 336 6.4 9.7 0.00 0.00 0.00 34 1014.5
20260506135314 14 11 4.8 4.8 0.00 0.00 0.00 34 1014.3
20260506134811 14 317 4.8 6.4 0.00 0.00 0.00 34 1014.1
20260506134307 14 337 3.2 4.8 0.00 0.00 0.00 34 1014.3
20260506133804 14 313 3.2 4.8 0.00 0.00 0.00 34 1014.0
20260506133301 13 291 4.8 6.4 0.00 0.00 0.00 34 1014.0
20260506132758 13 320 6.4 9.7 0.00 0.00 0.00 35 1013.8
20260506132255 13 325 11.3 16.1 0.00 0.00 0.00 34 1013.8
20260506131753 13 314 4.8 9.7 0.00 0.00 0.00 35 1013.7
20260506131249 13 272 6.4 6.4 0.00 0.00 0.00 34 1013.7
20260506130746 13 214 6.4 9.7 0.00 0.00 0.00 34 1013.8
20260506130243 13 294 6.4 6.4 0.00 0.00 0.00 35 1013.5
20260506125741 13 345 1.6 1.6 0.00 0.00 0.00 35 1013.3
20260506125238 13 0 3.2 3.2 0.00 0.00 0.00 35 1013.3
20260506124737 13 317 6.4 9.7 0.00 0.00 0.00 35 1013.2
20260506124234 13 281 8.0 9.7 0.00 0.00 0.00 35 1013.0
20260506123731 13 305 8.0 9.7 0.00 0.00 0.00 34 1012.9
20260506123230 13 201 8.0 9.7 0.00 0.00 0.00 34 1012.8
20260506122726 13 314 9.7 12.9 0.00 0.00 0.00 34 1012.9
20260506122224 13 247 8.0 9.7 0.00 0.00 0.00 34 1012.8
20260506121722 13 278 8.0 9.7 0.00 0.00 0.00 34 1012.6
20260506121218 14 283 4.8 4.8 0.00 0.00 0.00 34 1012.6
20260506120716 14 252 6.4 6.4 0.00 0.00 0.00 33 1012.3
20260506120213 13 275 8.0 9.7 0.00 0.00 0.00 34 1012.1
20260506115711 13 268 6.4 11.3 0.00 0.00 0.00 33 1012.3
20260506115209 13 258 4.8 6.4 0.00 0.00 0.00 33 1012.1
20260506114706 13 257 3.2 4.8 0.00 0.00 0.00 34 1012.0
20260506114204 14 229 6.4 9.7 0.00 0.00 0.00 33 1012.1
20260506113703 14 284 6.4 9.7 0.00 0.00 0.00 33 1012.3
20260506113159 14 298 4.8 4.8 0.00 0.00 0.00 33 1012.0
20260506112655 14 323 3.2 3.2 0.00 0.00 0.00 33 1011.9
20260506112153 14 287 6.4 6.4 0.00 0.00 0.00 33 1012.0
20260506111650 13 273 3.2 6.4 0.00 0.00 0.00 32 1011.8
20260506111148 13 329 3.2 3.2 0.00 0.00 0.00 32 1012.0
20260506110646 14 99 6.4 6.4 0.00 0.00 0.00 32 1011.8
20260506110143 14 333 4.8 4.8 0.00 0.00 0.00 32 1011.8
20260506105639 14 313 4.8 4.8 0.00 0.00 0.00 31 1011.8
20260506105136 14 1 3.2 4.8 0.00 0.00 0.00 31 1011.8
20260506104634 13 355 3.2 3.2 0.00 0.00 0.00 32 1011.9
20260506104131 14 340 3.2 3.2 0.00 0.00 0.00 32 1011.8
20260506103629 14 309 3.2 4.8 0.00 0.00 0.00 32 1011.8
20260506103125 15 256 9.7 11.3 0.00 0.00 0.00 31 1011.4
20260506102624 15 301 3.2 3.2 0.00 0.00 0.00 31 1011.5
20260506102121 14 303 3.2 4.8 0.00 0.00 0.00 32 1011.4
20260506101617 15 13 1.6 1.6 0.00 0.00 0.00 31 1011.5
20260506101114 15 244 8.0 9.7 0.00 0.00 0.00 31 1011.4
20260506100613 15 5 1.6 3.2 0.00 0.00 0.00 31 1011.3
20260506100110 15 277 9.7 9.7 0.00 0.00 0.00 31 1011.4
20260506095609 15 6 3.2 3.2 0.00 0.00 0.00 31 1011.4
20260506095105 15 209 9.7 11.3 0.00 0.00 0.00 31 1011.3
20260506094603 15 261 11.3 20.9 0.00 0.00 0.00 31 1011.2
20260506094100 15 133 4.8 6.4 0.00 0.00 0.00 30 1011.2
20260506093558 15 265 9.7 14.5 0.00 0.00 0.00 31 1011.2
20260506093055 15 15 1.6 1.6 0.00 0.00 0.00 30 1011.2
20260506092553 15 239 9.7 12.9 0.00 0.00 0.00 30 1011.2
20260506092050 15 238 11.3 17.7 0.00 0.00 0.00 30 1011.0
20260506091548 15 263 9.7 14.5 0.00 0.00 0.00 30 1011.2
20260506091045 15 316 4.8 4.8 0.00 0.00 0.00 30 1011.1
20260506090543 15 237 1.6 3.2 0.00 0.00 0.00 30 1011.1
20260506090039 15 300 3.2 4.8 0.00 0.00 0.00 31 1011.2
20260506085536 15 5 3.2 3.2 0.00 0.00 0.00 30 1011.0
20260506085032 15 154 8.0 9.7 0.00 0.00 0.00 30 1010.8
20260506084530 15 285 4.8 9.7 0.00 0.00 0.00 30 1011.1
20260506084025 15 179 6.4 6.4 0.00 0.00 0.00 31 1011.0
20260506083523 15 3 6.4 12.9 0.00 0.00 0.00 30 1011.1
20260506083020 15 358 3.2 4.8 0.00 0.00 0.00 31 1011.0
20260506082517 15 196 6.4 6.4 0.00 0.00 0.00 30 1011.0
20260506082012 15 275 3.2 6.4 0.00 0.00 0.00 30 1011.0
20260506081511 15 92 4.8 6.4 0.00 0.00 0.00 30 1011.2
20260506081008 15 214 6.4 11.3 0.00 0.00 0.00 30 1011.1
20260506080505 15 273 4.8 6.4 0.00 0.00 0.00 30 1011.0
20260506073449 15 224 14.5 17.7 0.00 0.00 0.00 30 1010.8
20260506072946 15 204 14.5 24.1 0.00 0.00 0.00 30 1010.8
20260506072443 15 248 6.4 6.4 0.00 0.00 0.00 31 1010.8
20260506071941 15 238 6.4 9.7 0.00 0.00 0.00 30 1010.8
20260506071439 16 351 3.2 4.8 0.00 0.00 0.00 30 1010.8
20260506070935 16 272 6.4 9.7 0.00 0.00 0.00 29 1010.8
20260506070432 16 34 4.8 6.4 0.00 0.00 0.00 29 1010.8
20260506062410 16 219 6.4 11.3 0.00 0.00 0.00 28 1010.4
20260506061906 16 266 9.7 14.5 0.00 0.00 0.00 28 1010.3
20260506061402 16 261 8.0 9.7 0.00 0.00 0.00 28 1010.3
20260506060900 16 246 6.4 11.3 0.00 0.00 0.00 28 1010.3
20260506060358 16 173 6.4 14.5 0.00 0.00 0.00 27 1010.4